Regional Weather Roundup
Issued by NWS Midland/Odessa, TX

Skip options and go directly to product.
Home | Oldest Version | Previous Version | Current Version | All | Text Only | Save Text | Print | Product List | Glossary Off

Skip product version selection by date and time.   

150
ASUS44 KMAF 292101
RWRMAF
MIDLAND AREA WEATHER ROUNDUP
NATIONAL WEATHER SERVICE MIDLAND TX
400 PM CDT SAT AUG 29 2015

...IN SOUTHWEST TEXAS AND SOUTHEAST NEW MEXICO...

CITY           SKY/WX    TMP DP  RH WIND       PRES   REMARKS
ALPINE         FAIR      82  49  31 E8        30.24F
ANDREWS        CLOUDY    76  56  49 SE7       30.15F
ARTESIA        FAIR      88  57  35 SE5       30.13F
BIG SPRING     CLOUDY    77  62  58 CALM      30.15F
CARLSBAD       FAIR      90  54  29 VRB7      30.10F
DRYDEN           N/A     85  61  44 VRB6      30.06F
FORT STOCKTON  FAIR      84  55  36 E13G18    30.12F
GUAD PASS      LGT RAIN  80  54  40 E18G29    30.25F
HOBBS          PTSUNNY   81  57  44 E7        30.17F
MARFA          FAIR      82  50  32 NE8       30.21F
MIDLAND AIRPK  PTSUNNY   82  48  30 S7        30.14F
MIDLAND INTL   CLOUDY    80  55  42 S7        30.13F
ODESSA         PTSUNNY   82  50  32 S8        30.14F
PECOS          FAIR      86  53  31 E9        30.10F
PRESIDIO       NOT AVBL
SEMINOLE       FAIR      80  57  44 S3        30.17F
SNYDER         CLOUDY    77  59  53 N5        30.12F
WINK           FAIR      86  58  38 SE8       30.10F
$$
...OTHER STATIONS IN TEXAS...

CITY           SKY/WX    TMP DP  RH WIND       PRES   REMARKS
ABILENE        LGT RAIN  81  64  56 W10       30.08R
AMARILLO       FAIR      88  55  32 NE7       30.14F
AUSTIN         PTSUNNY   93  62  35 S6        29.97F
BROWNSVILLE    FAIR      92  70  48 SE16      29.95F
CORPUS CHRISTI FAIR      91  63  39 E8        29.97F
DALLAS FTW     PTSUNNY   94  63  35 S14       29.94F
DEL RIO        FAIR      96  57  27 VRB5      29.96F
EL PASO        FAIR      91  53  27 VRB3      30.10F
HOUSTON INT    FAIR      90  63  40 SE7       29.99F
LUBBOCK        PTSUNNY   80  57  45 S12       30.14F
SAN ANGELO     FAIR      89  61  38 NE8       30.06F
SAN ANTONIO    PTSUNNY   93  60  33 VRB5      29.99F
WACO           FAIR      93  60  33 S10       29.98F
WICHITA FALLS  NOT AVBL
$$
...OTHER LOCATIONS IN NEW MEXICO...

CITY           SKY/WX    TMP DP  RH WIND       PRES   REMARKS
ALAMAGORDO     FAIR      91  48  22 S6G18     30.12F
ALBUQUERQUE    FAIR      88  46  23 VRB6      30.21F
CANNON AFB     FAIR      87  54  32 E12       30.17F
CLOVIS         PTSUNNY   82  55  39 E26G43    30.21R
HOLLOMAN AFB   FAIR      93  52  24 S8        30.09F
ROSWELL        FAIR      89  56  32 E9        30.12F
RUIDOSO        FAIR      75  50  41 MISG      30.36F
SANTA FE       TSTM      67  51  56 E10       30.32R
TRUTH OR CONSE FAIR      90  48  23 E8        30.16F
TUCUMCARI      FAIR      90  49  24 VRB7      30.14F
$$

USA.gov is the U.S. government's official web portal to all federal, state and local government web resources and services.